Time,TemperatureF,DewpointF,PressureIn,WindDirection,WindDirectionDegrees,WindSpeedMPH,WindSpeedGustMPH,Humidity,HourlyPrecipIn,Conditions,Clouds,dailyrainin,SoftwareType,DateUTC
2013-09-29 00:01:00,52.9,50.3,29.56,SE,135,1.1,1.1,91,0.00,RA,FEW,0.00,WeatherDisplay:10.37,2013-09-29 07:01:00,
2013-09-29 00:06:00,52.9,50.3,29.55,NE,45,0.0,0.0,91,0.00,RA,FEW,0.00,WeatherDisplay:10.37,2013-09-29 07:06:00,
2013-09-29 00:11:00,52.9,50.3,29.55,NE,45,0.0,0.0,91,0.00,CLR,FEW,0.00,WeatherDisplay:10.37,2013-09-29 07:11:00,
2013-09-29 00:16:00,52.9,50.6,29.54,NE,45,0.0,0.0,92,0.00,CLR,FEW,0.00,WeatherDisplay:10.37,2013-09-29 07:16:00,
2013-09-29 00:21:00,52.9,50.3,29.54,NE,45,0.0,0.0,91,0.00,CLR,FEW,0.00,WeatherDisplay:10.37,2013-09-29 07:21:00,
2013-09-29 00:26:00,52.9,50.6,29.54,NE,45,0.0,0.0,92,0.00,CLR,FEW,0.00,WeatherDisplay:10.37,2013-09-29 07:26:00,
2013-09-29 00:31:00,52.9,50.6,29.54,SE,135,3.1,3.1,92,0.00,CLR,FEW,0.00,WeatherDisplay:10.37,2013-09-29 07:31:00,
2013-09-29 00:36:00,52.9,50.6,29.53,WSW,248,0.0,0.0,92,0.00,CLR,FEW,0.00,WeatherDisplay:10.37,2013-09-29 07:36:00,
2013-09-29 00:41:00,52.9,50.6,29.53,SSW,202,0.0,0.0,92,0.00,CLR,FEW,0.00,WeatherDisplay:10.37,2013-09-29 07:41:00,
2013-09-29 00:46:00,52.9,50.6,29.52,ESE,112,0.0,0.0,92,0.00,CLR,FEW,0.00,WeatherDisplay:10.37,2013-09-29 07:46:00,
2013-09-29 00:51:00,52.9,50.6,29.52,SE,135,0.0,0.0,92,0.00,CLR,FEW,0.00,WeatherDisplay:10.37,2013-09-29 07:51:00,
2013-09-29 00:56:00,52.9,50.6,29.52,SW,225,0.0,0.0,92,0.00,CLR,FEW,0.00,WeatherDisplay:10.37,2013-09-29 07:56:00,
2013-09-29 01:01:00,52.9,50.6,29.52,NNE,22,2.3,2.3,92,0.00,CLR,FEW,0.00,WeatherDisplay:10.37,2013-09-29 08:01:00,
2013-09-29 01:06:00,52.9,50.6,29.51,NNE,22,1.1,0.0,92,0.00,CLR,FEW,0.00,WeatherDisplay:10.37,2013-09-29 08:06:00,
2013-09-29 01:11:00,52.9,50.6,29.51,NNE,22,0.0,0.0,92,0.00,CLR,FEW,0.00,WeatherDisplay:10.37,2013-09-29 08:11:00,
2013-09-29 01:16:00,52.9,50.6,29.52,West,270,0.0,0.0,92,0.00,CLR,FEW,0.00,WeatherDisplay:10.37,2013-09-29 08:16:00,
2013-09-29 01:21:00,52.9,50.6,29.52,WSW,248,0.0,0.0,92,0.00,CLR,FEW,0.00,WeatherDisplay:10.37,2013-09-29 08:21:00,
2013-09-29 01:26:00,52.7,50.1,29.51,South,180,0.0,0.0,91,0.00,CLR,FEW,0.00,WeatherDisplay:10.37,2013-09-29 08:26:00,
2013-09-29 01:31:00,52.7,50.1,29.51,SE,135,5.8,5.8,91,0.00,CLR,FEW,0.00,WeatherDisplay:10.37,2013-09-29 08:31:00,
2013-09-29 01:36:00,52.7,50.1,29.51,SSE,158,0.0,0.0,91,0.00,CLR,FEW,0.00,WeatherDisplay:10.37,2013-09-29 08:36:00,
2013-09-29 01:41:00,52.9,50.6,29.50,South,180,0.0,0.0,92,0.00,CLR,FEW,0.00,WeatherDisplay:10.37,2013-09-29 08:41:00,
2013-09-29 01:46:00,53.2,51.0,29.51,West,270,0.0,0.0,92,0.00,CLR,FEW,0.00,WeatherDisplay:10.37,2013-09-29 08:46:00,
2013-09-29 01:51:00,53.4,51.2,29.52,NW,315,0.0,0.0,92,0.00,CLR,FEW,0.00,WeatherDisplay:10.37,2013-09-29 08:51:00,
2013-09-29 01:56:00,53.6,51.0,29.52,NW,315,0.0,0.0,91,0.00,CLR,FEW,0.00,WeatherDisplay:10.37,2013-09-29 08:56:00,
2013-09-29 02:01:00,53.8,51.2,29.52,NNE,22,4.7,4.7,91,0.00,CLR,FEW,0.00,WeatherDisplay:10.37,2013-09-29 09:01:00,
2013-09-29 02:06:00,54.1,51.6,29.54,NW,315,6.9,6.9,91,0.00,CLR,FEW,0.00,WeatherDisplay:10.37,2013-09-29 09:06:00,
2013-09-29 02:11:00,55.2,52.3,29.56,NW,315,6.0,6.0,90,0.00,CLR,FEW,0.00,WeatherDisplay:10.37,2013-09-29 09:11:00,
2013-09-29 02:16:00,58.5,54.0,29.56,WNW,292,15.9,15.9,85,0.00,CLR,FEW,0.00,WeatherDisplay:10.37,2013-09-29 09:16:00,
2013-09-29 02:21:00,58.8,53.7,29.56,NNW,338,8.1,8.1,83,0.00,CLR,FEW,0.00,WeatherDisplay:10.37,2013-09-29 09:21:00,
2013-09-29 02:26:00,58.8,53.7,29.58,NW,315,4.7,4.7,83,0.00,CLR,FEW,0.00,WeatherDisplay:10.37,2013-09-29 09:26:00,
2013-09-29 02:31:00,58.3,53.1,29.58,NW,315,6.9,6.9,83,0.00,CLR,FEW,0.00,WeatherDisplay:10.37,2013-09-29 09:31:00,
2013-09-29 02:36:00,58.1,53.3,29.59,NW,315,5.8,6.0,84,0.00,CLR,FEW,0.00,WeatherDisplay:10.37,2013-09-29 09:36:00,
2013-09-29 02:41:00,57.9,53.1,29.60,NW,315,7.4,0.0,84,0.00,CLR,FEW,0.00,WeatherDisplay:10.37,2013-09-29 09:41:00,
2013-09-29 02:47:00,57.7,52.9,29.60,NW,315,8.1,8.1,84,0.00,CLR,FEW,0.00,WeatherDisplay:10.37,2013-09-29 09:47:00,
2013-09-29 02:52:00,57.7,52.9,29.62,WNW,292,2.3,2.3,84,0.00,CLR,FEW,0.00,WeatherDisplay:10.37,2013-09-29 09:52:00,
2013-09-29 02:57:00,57.4,52.3,29.62,WNW,292,4.0,4.0,83,0.00,CLR,FEW,0.00,WeatherDisplay:10.37,2013-09-29 09:57:00,
2013-09-29 03:02:00,57.0,51.6,29.63,NW,315,5.8,5.8,82,0.00,CLR,FEW,0.00,WeatherDisplay:10.37,2013-09-29 10:02:00,
2013-09-29 03:07:00,56.8,51.4,29.63,NW,315,5.8,6.2,82,0.00,CLR,FEW,0.00,WeatherDisplay:10.37,2013-09-29 10:07:00,
2013-09-29 03:12:00,56.5,51.1,29.64,NW,315,2.3,2.3,82,0.00,CLR,FEW,0.00,WeatherDisplay:10.37,2013-09-29 10:12:00,
2013-09-29 03:17:00,56.1,50.7,29.64,NW,315,0.0,0.0,82,0.00,CLR,FEW,0.00,WeatherDisplay:10.37,2013-09-29 10:17:00,
2013-09-29 03:22:00,55.9,50.9,29.64,NNW,338,8.1,8.1,83,0.00,CLR,FEW,0.00,WeatherDisplay:10.37,2013-09-29 10:22:00,
2013-09-29 03:27:00,55.6,50.5,29.63,North,0,5.8,5.8,83,0.00,CLR,FEW,0.00,WeatherDisplay:10.37,2013-09-29 10:27:00,
2013-09-29 03:32:00,55.4,50.3,29.63,NNW,338,5.8,5.8,83,0.00,CLR,FEW,0.00,WeatherDisplay:10.37,2013-09-29 10:32:00,
2013-09-29 03:37:00,55.2,49.5,29.63,NNW,338,9.2,9.2,81,0.00,CLR,FEW,0.00,WeatherDisplay:10.37,2013-09-29 10:37:00,
2013-09-29 03:42:00,55.2,49.5,29.64,West,270,4.6,4.6,81,0.00,CLR,FEW,0.00,WeatherDisplay:10.37,2013-09-29 10:42:00,
2013-09-29 03:47:00,55.0,49.3,29.64,West,270,0.0,0.0,81,0.00,CLR,FEW,0.00,WeatherDisplay:10.37,2013-09-29 10:47:00,
2013-09-29 03:52:00,54.7,49.0,29.64,WNW,292,0.0,0.0,81,0.00,CLR,FEW,0.00,WeatherDisplay:10.37,2013-09-29 10:52:00,
2013-09-29 03:57:00,54.7,49.3,29.65,WNW,292,0.0,0.0,82,0.00,CLR,FEW,0.00,WeatherDisplay:10.37,2013-09-29 10:57:00,
2013-09-29 04:02:00,54.5,49.1,29.66,WNW,292,0.0,0.0,82,0.00,CLR,FEW,0.00,WeatherDisplay:10.37,2013-09-29 11:02:00,
2013-09-29 04:07:00,54.3,48.9,29.65,North,0,11.2,11.2,82,0.00,CLR,FEW,0.00,WeatherDisplay:10.37,2013-09-29 11:07:00,
2013-09-29 04:12:00,54.0,48.3,29.66,NNW,338,6.9,7.1,81,0.02,RA,FEW,0.02,WeatherDisplay:10.37,2013-09-29 11:12:00,
2013-09-29 04:17:00,53.8,48.4,29.67,NNW,338,3.5,4.0,82,0.02,RA,FEW,0.02,WeatherDisplay:10.37,2013-09-29 11:17:00,
2013-09-29 04:22:00,53.4,48.1,29.68,NNE,22,8.9,8.9,82,0.04,RA,FEW,0.04,WeatherDisplay:10.37,2013-09-29 11:22:00,
2013-09-29 04:27:00,53.2,47.9,29.68,NNE,22,8.1,8.1,82,0.04,RA,FEW,0.06,WeatherDisplay:10.37,2013-09-29 11:27:00,
2013-09-29 04:32:00,52.9,47.5,29.68,NNE,22,3.5,3.5,82,0.06,RA,FEW,0.06,WeatherDisplay:10.37,2013-09-29 11:32:00,
2013-09-29 04:37:00,52.5,47.5,29.69,ESE,112,2.3,2.3,83,0.08,RA,FEW,0.08,WeatherDisplay:10.37,2013-09-29 11:37:00,
2013-09-29 04:42:00,52.3,47.3,29.68,ESE,112,0.0,0.0,83,0.08,RA,FEW,0.08,WeatherDisplay:10.37,2013-09-29 11:42:00,
2013-09-29 04:47:00,52.2,47.2,29.69,SE,135,0.0,0.0,83,0.08,,FEW,0.08,WeatherDisplay:10.37,2013-09-29 11:47:00,
2013-09-29 04:52:00,52.0,47.3,29.69,SSE,158,0.0,0.0,84,0.08,CLR,FEW,0.08,WeatherDisplay:10.37,2013-09-29 11:52:00,
2013-09-29 04:57:00,51.6,46.9,29.70,ESE,112,0.0,0.0,84,0.08,CLR,FEW,0.08,WeatherDisplay:10.37,2013-09-29 11:57:00,
2013-09-29 05:02:00,51.6,47.3,29.71,ESE,112,0.0,0.0,85,0.08,CLR,FEW,0.08,WeatherDisplay:10.37,2013-09-29 12:02:00,
2013-09-29 05:07:00,51.4,47.1,29.71,ESE,112,0.0,0.0,85,0.08,CLR,FEW,0.08,WeatherDisplay:10.37,2013-09-29 12:07:00,
2013-09-29 05:12:00,51.4,47.4,29.72,ESE,112,0.0,0.0,86,0.08,RA,FEW,0.10,WeatherDisplay:10.37,2013-09-29 12:12:00,
2013-09-29 05:17:00,51.1,47.0,29.72,ESE,112,0.0,0.0,86,0.08,RA,FEW,0.10,WeatherDisplay:10.37,2013-09-29 12:17:00,
2013-09-29 05:22:00,51.1,47.0,29.71,SE,135,3.6,4.0,86,0.06,CLR,FEW,0.10,WeatherDisplay:10.37,2013-09-29 12:22:00,
2013-09-29 05:27:00,50.9,47.2,29.72,SSE,158,2.3,2.3,87,0.06,CLR,FEW,0.10,WeatherDisplay:10.37,2013-09-29 12:27:00,
2013-09-29 05:32:00,50.7,47.3,29.71,SSE,158,1.1,1.1,88,0.04,CLR,FEW,0.10,WeatherDisplay:10.37,2013-09-29 12:32:00,
2013-09-29 05:37:00,50.7,47.3,29.71,SE,135,8.1,8.1,88,0.04,RA,FEW,0.12,WeatherDisplay:10.37,2013-09-29 12:37:00,
2013-09-29 05:42:00,50.7,47.3,29.71,SSE,158,9.2,9.2,88,0.04,RA,FEW,0.12,WeatherDisplay:10.37,2013-09-29 12:42:00,
2013-09-29 05:47:00,50.7,47.3,29.70,SSE,158,13.0,13.0,88,0.04,,FEW,0.12,WeatherDisplay:10.37,2013-09-29 12:47:00,
2013-09-29 05:52:00,50.7,47.3,29.71,South,180,9.6,9.6,88,0.04,CLR,FEW,0.12,WeatherDisplay:10.37,2013-09-29 12:52:00,
2013-09-29 05:57:00,50.7,47.3,29.71,South,180,10.4,10.4,88,0.04,CLR,FEW,0.12,WeatherDisplay:10.37,2013-09-29 12:57:00,
2013-09-29 06:03:00,50.7,47.3,29.72,WNW,292,0.0,0.0,88,0.04,CLR,FEW,0.12,WeatherDisplay:10.37,2013-09-29 13:03:00,
2013-09-29 06:08:00,50.9,47.8,29.73,West,270,6.9,7.4,89,0.04,CLR,FEW,0.12,WeatherDisplay:10.37,2013-09-29 13:08:00,
2013-09-29 06:13:00,50.9,47.5,29.71,SSW,202,0.0,0.0,88,0.02,CLR,FEW,0.12,WeatherDisplay:10.37,2013-09-29 13:13:00,
2013-09-29 06:18:00,50.9,47.5,29.73,South,180,0.0,0.0,88,0.02,CLR,FEW,0.12,WeatherDisplay:10.37,2013-09-29 13:18:00,
2013-09-29 06:23:00,50.9,47.5,29.74,SSW,202,2.3,2.3,88,0.02,CLR,FEW,0.12,WeatherDisplay:10.37,2013-09-29 13:23:00,
2013-09-29 06:28:00,50.9,47.5,29.73,South,180,0.0,0.0,88,0.02,CLR,FEW,0.12,WeatherDisplay:10.37,2013-09-29 13:28:00,
2013-09-29 06:33:00,50.9,47.5,29.73,SE,135,4.7,4.7,88,0.02,CLR,FEW,0.12,WeatherDisplay:10.37,2013-09-29 13:33:00,
2013-09-29 06:38:00,50.7,47.3,29.73,SE,135,4.6,4.6,88,0.00,CLR,FEW,0.12,WeatherDisplay:10.37,2013-09-29 13:38:00,
2013-09-29 06:43:00,50.7,47.3,29.72,SE,135,0.0,0.0,88,0.00,CLR,FEW,0.12,WeatherDisplay:10.37,2013-09-29 13:43:00,
2013-09-29 06:48:00,50.5,47.1,29.73,ENE,68,1.3,1.3,88,0.00,CLR,FEW,0.12,WeatherDisplay:10.37,2013-09-29 13:48:00,
2013-09-29 06:53:00,50.5,47.1,29.74,ENE,68,0.0,0.0,88,0.00,CLR,FEW,0.12,WeatherDisplay:10.37,2013-09-29 13:53:00,
2013-09-29 06:58:00,50.5,47.1,29.75,ENE,68,0.0,0.0,88,0.00,CLR,FEW,0.12,WeatherDisplay:10.37,2013-09-29 13:58:00,
2013-09-29 07:03:00,50.4,46.9,29.73,ESE,112,4.6,4.6,88,0.00,CLR,FEW,0.12,WeatherDisplay:10.37,2013-09-29 14:03:00,
2013-09-29 07:08:00,50.2,46.8,29.72,ESE,112,0.0,0.0,88,0.00,CLR,FEW,0.12,WeatherDisplay:10.37,2013-09-29 14:08:00,
2013-09-29 07:13:00,50.2,46.8,29.73,SE,135,0.0,0.0,88,0.00,CLR,FEW,0.12,WeatherDisplay:10.37,2013-09-29 14:13:00,
2013-09-29 07:18:00,50.2,46.8,29.73,SE,135,0.0,0.0,88,0.00,CLR,FEW,0.12,WeatherDisplay:10.37,2013-09-29 14:18:00,
2013-09-29 07:23:00,50.2,47.1,29.72,ESE,112,0.0,0.0,89,0.00,CLR,FEW,0.12,WeatherDisplay:10.37,2013-09-29 14:23:00,
2013-09-29 07:28:00,49.8,46.7,29.72,ESE,112,2.3,2.3,89,0.00,CLR,FEW,0.12,WeatherDisplay:10.37,2013-09-29 14:28:00,
2013-09-29 07:33:00,49.8,46.7,29.73,ENE,68,2.3,2.3,89,0.00,CLR,FEW,0.12,WeatherDisplay:10.37,2013-09-29 14:33:00,
2013-09-29 07:38:00,49.8,46.7,29.72,North,0,6.9,6.9,89,0.00,CLR,FEW,0.12,WeatherDisplay:10.37,2013-09-29 14:38:00,
2013-09-29 07:43:00,49.8,46.7,29.72,NW,315,3.8,3.8,89,0.00,CLR,FEW,0.12,WeatherDisplay:10.37,2013-09-29 14:43:00,
2013-09-29 07:48:00,49.8,46.7,29.71,WNW,292,0.0,0.0,89,0.00,CLR,FEW,0.12,WeatherDisplay:10.37,2013-09-29 14:48:00,
2013-09-29 07:53:00,49.8,46.7,29.71,WNW,292,0.0,0.0,89,0.00,CLR,FEW,0.12,WeatherDisplay:10.37,2013-09-29 14:53:00,
2013-09-29 07:58:00,49.8,46.7,29.71,WNW,292,0.0,0.0,89,0.00,CLR,FEW,0.12,WeatherDisplay:10.37,2013-09-29 14:58:00,
2013-09-29 08:03:00,49.8,46.7,29.72,WNW,292,0.0,0.0,89,0.00,CLR,FEW,0.12,WeatherDisplay:10.37,2013-09-29 15:03:00,
2013-09-29 08:08:00,49.8,46.7,29.72,WNW,292,0.0,0.0,89,0.00,CLR,FEW,0.12,WeatherDisplay:10.37,2013-09-29 15:08:00,
2013-09-29 08:13:00,49.8,46.7,29.72,WNW,292,0.0,0.0,89,0.00,CLR,FEW,0.12,WeatherDisplay:10.37,2013-09-29 15:13:00,
2013-09-29 08:18:00,49.8,46.7,29.72,WNW,292,0.0,0.0,89,0.00,CLR,FEW,0.12,WeatherDisplay:10.37,2013-09-29 15:18:00,
2013-09-29 08:23:00,49.8,46.7,29.72,WNW,292,0.0,0.0,89,0.00,CLR,FEW,0.12,WeatherDisplay:10.37,2013-09-29 15:23:00,
2013-09-29 08:28:00,49.8,46.7,29.73,WNW,292,0.0,0.0,89,0.00,CLR,FEW,0.12,WeatherDisplay:10.37,2013-09-29 15:28:00,
2013-09-29 08:33:00,49.8,47.0,29.73,WNW,292,0.0,0.0,90,0.00,CLR,FEW,0.12,WeatherDisplay:10.37,2013-09-29 15:33:00,
2013-09-29 08:38:00,49.8,47.0,29.72,WNW,292,0.0,0.0,90,0.00,CLR,FEW,0.12,WeatherDisplay:10.37,2013-09-29 15:38:00,
2013-09-29 08:43:00,50.0,47.2,29.73,WNW,292,0.0,0.0,90,0.00,CLR,FEW,0.12,WeatherDisplay:10.37,2013-09-29 15:43:00,
2013-09-29 08:48:00,50.2,47.4,29.73,WNW,292,0.0,0.0,90,0.00,CLR,FEW,0.12,WeatherDisplay:10.37,2013-09-29 15:48:00,
2013-09-29 08:53:00,50.2,47.4,29.73,WNW,292,0.0,0.0,90,0.00,CLR,FEW,0.12,WeatherDisplay:10.37,2013-09-29 15:53:00,
2013-09-29 08:58:00,50.2,47.4,29.73,WNW,292,0.0,0.0,90,0.00,CLR,FEW,0.12,WeatherDisplay:10.37,2013-09-29 15:58:00,
2013-09-29 09:03:00,50.2,47.4,29.73,WNW,292,0.0,0.0,90,0.00,CLR,FEW,0.12,WeatherDisplay:10.37,2013-09-29 16:03:00,
2013-09-29 09:08:00,50.4,47.5,29.73,WNW,292,0.0,0.0,90,0.00,CLR,FEW,0.12,WeatherDisplay:10.37,2013-09-29 16:08:00,
2013-09-29 09:13:00,50.4,47.5,29.73,WNW,292,0.0,0.0,90,0.00,CLR,FEW,0.12,WeatherDisplay:10.37,2013-09-29 16:13:00,
2013-09-29 09:18:00,50.4,47.5,29.74,WNW,292,0.0,0.0,90,0.00,CLR,FEW,0.12,WeatherDisplay:10.37,2013-09-29 16:18:00,
2013-09-29 09:23:00,50.4,47.5,29.74,WNW,292,0.0,0.0,90,0.00,CLR,FEW,0.12,WeatherDisplay:10.37,2013-09-29 16:23:00,
2013-09-29 09:28:00,50.4,47.5,29.74,WNW,292,0.0,0.0,90,0.00,CLR,FEW,0.12,WeatherDisplay:10.37,2013-09-29 16:28:00,
2013-09-29 09:33:00,50.5,47.7,29.73,WNW,292,0.0,0.0,90,0.00,CLR,FEW,0.12,WeatherDisplay:10.37,2013-09-29 16:33:00,
2013-09-29 09:38:00,50.7,47.9,29.73,WNW,292,0.0,0.0,90,0.00,CLR,FEW,0.12,WeatherDisplay:10.37,2013-09-29 16:38:00,
2013-09-29 09:43:00,50.7,47.9,29.74,WNW,292,0.0,0.0,90,0.00,CLR,FEW,0.12,WeatherDisplay:10.37,2013-09-29 16:43:00,
2013-09-29 09:48:00,50.7,47.9,29.74,WNW,292,0.0,0.0,90,0.00,CLR,FEW,0.12,WeatherDisplay:10.37,2013-09-29 16:48:00,
2013-09-29 09:53:00,50.7,47.9,29.74,WNW,292,0.0,0.0,90,0.00,CLR,FEW,0.12,WeatherDisplay:10.37,2013-09-29 16:53:00,
2013-09-29 09:58:00,50.5,47.7,29.74,East,90,0.0,0.0,90,0.00,CLR,FEW,0.12,WeatherDisplay:10.37,2013-09-29 16:58:00,
2013-09-29 10:03:00,50.5,47.7,29.74,East,90,0.0,0.0,90,0.00,CLR,FEW,0.12,WeatherDisplay:10.37,2013-09-29 17:03:00,
2013-09-29 10:08:00,50.7,47.9,29.74,East,90,0.0,0.0,90,0.00,CLR,FEW,0.12,WeatherDisplay:10.37,2013-09-29 17:08:00,
2013-09-29 10:13:00,50.7,47.9,29.74,East,90,0.0,0.0,90,0.00,CLR,FEW,0.12,WeatherDisplay:10.37,2013-09-29 17:13:00,
2013-09-29 10:18:00,50.7,47.9,29.74,East,90,0.0,0.0,90,0.00,CLR,FEW,0.12,WeatherDisplay:10.37,2013-09-29 17:18:00,
2013-09-29 10:23:00,50.7,47.9,29.74,East,90,0.0,0.0,90,0.00,CLR,FEW,0.12,WeatherDisplay:10.37,2013-09-29 17:23:00,
2013-09-29 10:28:00,50.7,47.9,29.74,ENE,68,0.0,0.0,90,0.00,CLR,FEW,0.12,WeatherDisplay:10.37,2013-09-29 17:28:00,
2013-09-29 10:33:00,50.9,48.1,29.74,ENE,68,0.0,0.0,90,0.00,CLR,FEW,0.12,WeatherDisplay:10.37,2013-09-29 17:33:00,
2013-09-29 10:38:00,51.1,48.2,29.74,ENE,68,0.0,0.0,90,0.00,CLR,FEW,0.12,WeatherDisplay:10.37,2013-09-29 17:38:00,
2013-09-29 10:43:00,51.1,48.2,29.74,ENE,68,0.0,0.0,90,0.00,CLR,FEW,0.12,WeatherDisplay:10.37,2013-09-29 17:43:00,
2013-09-29 10:48:00,51.3,48.4,29.75,ENE,68,0.0,0.0,90,0.00,CLR,FEW,0.12,WeatherDisplay:10.37,2013-09-29 17:48:00,
2013-09-29 10:53:00,51.4,48.6,29.74,ENE,68,0.0,0.0,90,0.00,CLR,FEW,0.12,WeatherDisplay:10.37,2013-09-29 17:53:00,
2013-09-29 10:58:00,51.4,48.6,29.75,ENE,68,0.0,0.0,90,0.00,CLR,FEW,0.12,WeatherDisplay:10.37,2013-09-29 17:58:00,
2013-09-29 11:03:00,51.4,48.6,29.75,ENE,68,0.0,0.0,90,0.00,CLR,FEW,0.12,WeatherDisplay:10.37,2013-09-29 18:03:00,
2013-09-29 11:08:00,51.6,48.8,29.75,ENE,68,0.0,0.0,90,0.00,CLR,FEW,0.12,WeatherDisplay:10.37,2013-09-29 18:08:00,
2013-09-29 11:13:00,51.6,48.8,29.75,ENE,68,0.0,0.0,90,0.00,CLR,FEW,0.12,WeatherDisplay:10.37,2013-09-29 18:13:00,
2013-09-29 11:18:00,51.6,48.8,29.75,ENE,68,0.0,0.0,90,0.00,CLR,FEW,0.12,WeatherDisplay:10.37,2013-09-29 18:18:00,
2013-09-29 11:23:00,51.6,48.8,29.75,NNW,338,7.2,7.2,90,0.00,CLR,FEW,0.12,WeatherDisplay:10.37,2013-09-29 18:23:00,
2013-09-29 11:28:00,51.8,49.0,29.74,NNW,338,6.9,6.9,90,0.00,CLR,FEW,0.12,WeatherDisplay:10.37,2013-09-29 18:28:00,
2013-09-29 11:33:00,51.8,49.0,29.75,NW,315,2.3,2.3,90,0.00,CLR,FEW,0.12,WeatherDisplay:10.37,2013-09-29 18:33:00,
2013-09-29 11:38:00,52.0,49.1,29.76,West,270,1.1,1.1,90,0.00,CLR,FEW,0.12,WeatherDisplay:10.37,2013-09-29 18:38:00,
2013-09-29 11:43:00,52.0,48.8,29.76,NW,315,4.6,4.6,89,0.00,CLR,FEW,0.12,WeatherDisplay:10.37,2013-09-29 18:43:00,
2013-09-29 11:49:00,52.0,48.8,29.76,NNW,338,3.5,3.5,89,0.00,CLR,FEW,0.12,WeatherDisplay:10.37,2013-09-29 18:49:00,
2013-09-29 11:54:00,52.0,48.8,29.76,NE,45,0.0,0.0,89,0.00,CLR,FEW,0.12,WeatherDisplay:10.37,2013-09-29 18:54:00,
2013-09-29 11:59:00,52.2,49.0,29.77,East,90,2.7,2.7,89,0.00,CLR,FEW,0.12,WeatherDisplay:10.37,2013-09-29 18:59:00,
2013-09-29 12:04:00,52.2,49.0,29.77,SE,135,3.5,3.5,89,0.00,CLR,FEW,0.12,WeatherDisplay:10.37,2013-09-29 19:04:00,
2013-09-29 12:09:00,52.2,49.0,29.77,SE,135,0.0,0.0,89,0.00,CLR,FEW,0.12,WeatherDisplay:10.37,2013-09-29 19:09:00,
2013-09-29 12:14:00,52.3,49.2,29.77,SE,135,0.0,0.0,89,0.00,CLR,FEW,0.12,WeatherDisplay:10.37,2013-09-29 19:14:00,
2013-09-29 12:19:00,52.3,49.2,29.76,South,180,4.7,4.7,89,0.00,CLR,FEW,0.12,WeatherDisplay:10.37,2013-09-29 19:19:00,
2013-09-29 12:24:00,52.5,49.4,29.76,South,180,4.6,4.6,89,0.00,CLR,FEW,0.12,WeatherDisplay:10.37,2013-09-29 19:24:00,
2013-09-29 12:29:00,52.5,49.1,29.76,South,180,2.3,2.3,88,0.00,CLR,FEW,0.12,WeatherDisplay:10.37,2013-09-29 19:29:00,
2013-09-29 12:34:00,52.7,49.2,29.77,South,180,0.0,0.0,88,0.00,CLR,FEW,0.12,WeatherDisplay:10.37,2013-09-29 19:34:00,
2013-09-29 12:39:00,52.7,49.2,29.76,SSE,158,1.1,0.0,88,0.00,CLR,FEW,0.12,WeatherDisplay:10.37,2013-09-29 19:39:00,
2013-09-29 12:44:00,52.9,49.4,29.76,East,90,1.3,1.3,88,0.00,CLR,FEW,0.12,WeatherDisplay:10.37,2013-09-29 19:44:00,
2013-09-29 12:48:00,52.9,49.4,29.76,East,90,1.1,1.1,88,0.00,CLR,FEW,0.12,WeatherDisplay:10.37,2013-09-29 19:48:00,
2013-09-29 12:53:00,53.1,49.6,29.76,NE,45,3.5,3.5,88,0.00,CLR,FEW,0.12,WeatherDisplay:10.37,2013-09-29 19:53:00,
2013-09-29 12:58:00,53.2,49.8,29.76,NE,45,2.3,2.3,88,0.00,CLR,FEW,0.12,WeatherDisplay:10.37,2013-09-29 19:58:00,
2013-09-29 13:03:00,53.2,49.8,29.75,NE,45,4.6,5.1,88,0.00,CLR,FEW,0.12,WeatherDisplay:10.37,2013-09-29 20:03:00,
2013-09-29 13:08:00,53.4,50.0,29.75,NE,45,0.0,0.0,88,0.00,CLR,FEW,0.12,WeatherDisplay:10.37,2013-09-29 20:08:00,
2013-09-29 13:13:00,53.4,49.6,29.75,NE,45,2.3,2.3,87,0.00,CLR,FEW,0.12,WeatherDisplay:10.37,2013-09-29 20:13:00,
2013-09-29 13:18:00,53.8,50.0,29.75,NE,45,1.1,1.1,87,0.00,CLR,FEW,0.12,WeatherDisplay:10.37,2013-09-29 20:18:00,
2013-09-29 13:23:00,53.8,50.0,29.75,NE,45,0.0,0.0,87,0.00,CLR,FEW,0.12,WeatherDisplay:10.37,2013-09-29 20:23:00,
2013-09-29 13:28:00,54.1,50.0,29.75,NE,45,0.0,0.0,86,0.00,CLR,FEW,0.12,WeatherDisplay:10.37,2013-09-29 20:28:00,
2013-09-29 13:33:00,54.1,50.0,29.75,NE,45,0.0,0.0,86,0.00,CLR,FEW,0.12,WeatherDisplay:10.37,2013-09-29 20:33:00,
2013-09-29 13:38:00,54.3,50.2,29.75,NE,45,0.0,0.0,86,0.00,CLR,FEW,0.12,WeatherDisplay:10.37,2013-09-29 20:38:00,
2013-09-29 13:43:00,54.5,50.4,29.76,NE,45,0.0,0.0,86,0.00,CLR,FEW,0.12,WeatherDisplay:10.37,2013-09-29 20:43:00,
2013-09-29 13:48:00,54.5,50.4,29.76,NE,45,0.0,0.0,86,0.00,CLR,FEW,0.12,WeatherDisplay:10.37,2013-09-29 20:48:00,
2013-09-29 13:53:00,54.3,50.2,29.76,ESE,112,4.6,4.6,86,0.00,CLR,FEW,0.12,WeatherDisplay:10.37,2013-09-29 20:53:00,
2013-09-29 13:58:00,54.3,49.9,29.75,ESE,112,2.3,2.3,85,0.00,CLR,FEW,0.12,WeatherDisplay:10.37,2013-09-29 20:58:00,
2013-09-29 14:03:00,54.3,49.9,29.76,ESE,112,0.0,0.0,85,0.00,CLR,FEW,0.12,WeatherDisplay:10.37,2013-09-29 21:03:00,
2013-09-29 14:08:00,54.3,49.9,29.76,SE,135,0.7,0.7,85,0.00,CLR,FEW,0.12,WeatherDisplay:10.37,2013-09-29 21:08:00,
2013-09-29 14:13:00,54.5,50.1,29.75,SSW,202,2.3,2.5,85,0.00,CLR,FEW,0.12,WeatherDisplay:10.37,2013-09-29 21:13:00,
2013-09-29 14:18:00,54.7,49.9,29.75,SSW,202,0.0,0.0,84,0.00,CLR,FEW,0.12,WeatherDisplay:10.37,2013-09-29 21:18:00,
2013-09-29 14:23:00,54.9,50.1,29.75,SSW,202,0.0,0.0,84,0.00,CLR,FEW,0.12,WeatherDisplay:10.37,2013-09-29 21:23:00,
2013-09-29 14:28:00,55.0,50.3,29.76,SSW,202,0.0,0.0,84,0.00,CLR,FEW,0.12,WeatherDisplay:10.37,2013-09-29 21:28:00,
2013-09-29 14:33:00,55.0,50.3,29.76,SSW,202,0.0,0.0,84,0.00,CLR,FEW,0.12,WeatherDisplay:10.37,2013-09-29 21:33:00,
2013-09-29 14:38:00,55.0,50.3,29.76,SSW,202,0.0,0.0,84,0.00,CLR,FEW,0.12,WeatherDisplay:10.37,2013-09-29 21:38:00,
2013-09-29 14:43:00,55.2,50.5,29.76,SSW,202,0.0,0.0,84,0.00,CLR,FEW,0.12,WeatherDisplay:10.37,2013-09-29 21:43:00,
2013-09-29 14:48:00,55.2,50.1,29.75,SSW,202,0.0,0.0,83,0.00,CLR,FEW,0.12,WeatherDisplay:10.37,2013-09-29 21:48:00,
2013-09-29 14:53:00,55.2,50.1,29.76,West,270,1.1,1.4,83,0.00,CLR,FEW,0.12,WeatherDisplay:10.37,2013-09-29 21:53:00,
2013-09-29 14:58:00,55.2,50.1,29.75,North,0,2.3,2.8,83,0.00,CLR,FEW,0.12,WeatherDisplay:10.37,2013-09-29 21:58:00,
2013-09-29 15:03:00,55.2,50.1,29.75,North,0,0.0,0.0,83,0.00,CLR,FEW,0.12,WeatherDisplay:10.37,2013-09-29 22:03:00,
2013-09-29 15:08:00,55.2,49.8,29.75,NNW,338,1.1,1.1,82,0.00,CLR,FEW,0.12,WeatherDisplay:10.37,2013-09-29 22:08:00,
2013-09-29 15:13:00,55.0,49.6,29.75,North,0,0.0,0.0,82,0.00,CLR,FEW,0.12,WeatherDisplay:10.37,2013-09-29 22:13:00,
2013-09-29 15:18:00,55.0,49.6,29.75,NNE,22,1.1,1.1,82,0.00,CLR,FEW,0.12,WeatherDisplay:10.37,2013-09-29 22:18:00,
2013-09-29 15:23:00,55.0,50.0,29.76,North,0,0.0,0.0,83,0.00,CLR,FEW,0.12,WeatherDisplay:10.37,2013-09-29 22:23:00,
2013-09-29 15:28:00,54.9,49.8,29.76,NNE,22,0.0,0.0,83,0.00,CLR,FEW,0.12,WeatherDisplay:10.37,2013-09-29 22:28:00,
2013-09-29 15:33:00,54.9,49.8,29.76,NNE,22,0.0,0.0,83,0.00,CLR,FEW,0.12,WeatherDisplay:10.37,2013-09-29 22:33:00,
2013-09-29 15:38:00,54.7,49.9,29.76,NNE,22,0.0,0.0,84,0.00,CLR,FEW,0.12,WeatherDisplay:10.37,2013-09-29 22:38:00,
2013-09-29 15:43:00,54.7,49.9,29.76,SE,135,3.5,3.5,84,0.00,CLR,FEW,0.12,WeatherDisplay:10.37,2013-09-29 22:43:00,
2013-09-29 15:48:00,54.5,49.8,29.76,SE,135,0.0,0.0,84,0.00,CLR,FEW,0.12,WeatherDisplay:10.37,2013-09-29 22:48:00,
2013-09-29 15:53:00,54.3,49.6,29.76,SSE,158,3.6,3.6,84,0.00,CLR,FEW,0.12,WeatherDisplay:10.37,2013-09-29 22:53:00,
2013-09-29 15:58:00,54.3,49.6,29.77,SSE,158,3.8,3.8,84,0.00,CLR,FEW,0.12,WeatherDisplay:10.37,2013-09-29 22:58:00,
2013-09-29 16:03:00,54.3,49.6,29.76,SSE,158,8.1,8.1,84,0.00,CLR,FEW,0.12,WeatherDisplay:10.37,2013-09-29 23:03:00,
2013-09-29 16:08:00,54.3,48.9,29.76,South,180,8.1,8.1,82,0.00,CLR,FEW,0.12,WeatherDisplay:10.37,2013-09-29 23:08:00,
2013-09-29 16:13:00,54.3,49.3,29.76,South,180,6.3,6.3,83,0.00,CLR,FEW,0.12,WeatherDisplay:10.37,2013-09-29 23:13:00,
2013-09-29 16:18:00,54.3,48.9,29.76,South,180,1.1,1.1,82,0.00,CLR,FEW,0.12,WeatherDisplay:10.37,2013-09-29 23:18:00,
2013-09-29 16:23:00,54.1,48.8,29.76,SSE,158,3.5,3.5,82,0.00,CLR,FEW,0.12,WeatherDisplay:10.37,2013-09-29 23:23:00,
2013-09-29 16:28:00,54.3,48.9,29.77,SSE,158,2.3,2.3,82,0.00,CLR,FEW,0.12,WeatherDisplay:10.37,2013-09-29 23:28:00,
2013-09-29 16:33:00,54.1,48.8,29.76,SSE,158,0.0,0.0,82,0.00,CLR,FEW,0.12,WeatherDisplay:10.37,2013-09-29 23:33:00,
2013-09-29 16:38:00,54.1,49.4,29.76,SSE,158,2.2,2.2,84,0.00,CLR,FEW,0.12,WeatherDisplay:10.37,2013-09-29 23:38:00,
2013-09-29 16:43:00,53.8,49.1,29.77,SSE,158,0.0,0.0,84,0.00,CLR,FEW,0.12,WeatherDisplay:10.37,2013-09-29 23:43:00,
2013-09-29 16:48:00,53.8,49.1,29.76,SSE,158,0.2,0.2,84,0.00,CLR,FEW,0.12,WeatherDisplay:10.37,2013-09-29 23:48:00,
2013-09-29 16:53:00,53.4,49.0,29.76,SSE,158,0.0,0.0,85,0.00,CLR,FEW,0.12,WeatherDisplay:10.37,2013-09-29 23:53:00,
2013-09-29 16:58:00,53.4,49.0,29.77,SSE,158,0.0,0.0,85,0.00,CLR,FEW,0.12,WeatherDisplay:10.37,2013-09-29 23:58:00,
2013-09-29 17:03:00,53.4,49.0,29.77,SSE,158,0.0,0.0,85,0.00,CLR,FEW,0.12,WeatherDisplay:10.37,2013-09-30 00:03:00,
2013-09-29 17:08:00,53.4,49.3,29.76,SSE,158,0.0,0.0,86,0.00,CLR,FEW,0.12,WeatherDisplay:10.37,2013-09-30 00:08:00,
2013-09-29 17:13:00,53.4,49.3,29.76,SSE,158,0.0,0.0,86,0.02,RA,FEW,0.14,WeatherDisplay:10.37,2013-09-30 00:13:00,
2013-09-29 17:18:00,53.4,49.3,29.76,SSE,158,0.0,0.0,86,0.02,RA,FEW,0.14,WeatherDisplay:10.37,2013-09-30 00:18:00,
2013-09-29 17:23:00,53.2,49.2,29.75,SSE,158,0.0,0.0,86,0.02,CLR,FEW,0.14,WeatherDisplay:10.37,2013-09-30 00:23:00,
2013-09-29 17:28:00,53.2,49.2,29.75,SSE,158,0.0,0.0,86,0.02,CLR,FEW,0.14,WeatherDisplay:10.37,2013-09-30 00:28:00,
2013-09-29 17:34:00,53.2,49.2,29.74,SSE,158,0.0,0.0,86,0.02,CLR,FEW,0.14,WeatherDisplay:10.37,2013-09-30 00:34:00,
2013-09-29 17:39:00,53.2,49.2,29.74,SSE,158,0.0,0.0,86,0.02,CLR,FEW,0.14,WeatherDisplay:10.37,2013-09-30 00:39:00,
2013-09-29 17:44:00,53.2,49.2,29.73,SSE,158,0.0,0.0,86,0.02,CLR,FEW,0.14,WeatherDisplay:10.37,2013-09-30 00:44:00,
2013-09-29 17:49:00,52.9,48.8,29.73,SSE,158,0.0,0.0,86,0.02,CLR,FEW,0.14,WeatherDisplay:10.37,2013-09-30 00:49:00,
2013-09-29 17:54:00,52.9,48.8,29.73,SSE,158,0.0,0.0,86,0.02,CLR,FEW,0.14,WeatherDisplay:10.37,2013-09-30 00:54:00,
2013-09-29 17:59:00,52.9,48.8,29.73,SSE,158,0.0,0.0,86,0.02,CLR,FEW,0.14,WeatherDisplay:10.37,2013-09-30 00:59:00,
2013-09-29 18:04:00,52.3,48.6,29.73,SSE,158,0.0,0.0,87,0.02,CLR,FEW,0.14,WeatherDisplay:10.37,2013-09-30 01:04:00,
2013-09-29 18:09:00,52.3,48.6,29.73,SSE,158,0.0,0.0,87,0.02,CLR,FEW,0.14,WeatherDisplay:10.37,2013-09-30 01:09:00,
2013-09-29 18:14:00,52.2,48.7,29.72,SSE,158,0.0,0.0,88,0.00,CLR,FEW,0.14,WeatherDisplay:10.37,2013-09-30 01:14:00,
2013-09-29 18:19:00,52.2,48.7,29.73,SSE,158,0.0,0.0,88,0.00,CLR,FEW,0.14,WeatherDisplay:10.37,2013-09-30 01:19:00,
2013-09-29 18:24:00,52.2,48.7,29.73,SSE,158,0.0,0.0,88,0.00,CLR,FEW,0.14,WeatherDisplay:10.37,2013-09-30 01:24:00,
2013-09-29 18:29:00,52.2,48.7,29.73,SSE,158,0.0,0.0,88,0.00,CLR,FEW,0.14,WeatherDisplay:10.37,2013-09-30 01:29:00,
2013-09-29 18:34:00,52.0,48.5,29.73,SSE,158,0.0,0.0,88,0.00,CLR,FEW,0.14,WeatherDisplay:10.37,2013-09-30 01:34:00,
2013-09-29 18:39:00,52.0,48.5,29.72,SSE,158,0.0,0.0,88,0.00,CLR,FEW,0.14,WeatherDisplay:10.37,2013-09-30 01:39:00,
2013-09-29 18:44:00,51.8,48.4,29.73,SSE,158,0.0,0.0,88,0.00,CLR,FEW,0.14,WeatherDisplay:10.37,2013-09-30 01:44:00,
2013-09-29 18:49:00,51.6,48.2,29.73,SSE,158,0.0,0.0,88,0.00,CLR,FEW,0.14,WeatherDisplay:10.37,2013-09-30 01:49:00,
2013-09-29 18:54:00,51.6,48.2,29.72,SSE,158,0.0,0.0,88,0.00,CLR,FEW,0.14,WeatherDisplay:10.37,2013-09-30 01:54:00,
2013-09-29 18:59:00,51.6,48.2,29.72,SSE,158,0.0,0.0,88,0.00,CLR,FEW,0.14,WeatherDisplay:10.37,2013-09-30 01:59:00,
2013-09-29 19:04:00,51.4,48.0,29.72,SSE,158,0.0,0.0,88,0.02,RA,FEW,0.16,WeatherDisplay:10.37,2013-09-30 02:04:00,
2013-09-29 19:09:00,51.4,48.0,29.72,SSE,158,0.0,0.0,88,0.02,RA,FEW,0.16,WeatherDisplay:10.37,2013-09-30 02:09:00,
2013-09-29 19:14:00,51.4,48.0,29.72,SSE,158,0.0,0.0,88,0.02,,FEW,0.16,WeatherDisplay:10.37,2013-09-30 02:14:00,
2013-09-29 19:19:00,51.4,48.0,29.72,SSE,158,0.0,0.0,88,0.02,CLR,FEW,0.16,WeatherDisplay:10.37,2013-09-30 02:19:00,
2013-09-29 19:24:00,51.4,48.0,29.73,SSE,158,0.0,0.0,88,0.02,CLR,FEW,0.16,WeatherDisplay:10.37,2013-09-30 02:24:00,
2013-09-29 19:29:00,51.4,48.0,29.73,SSE,158,0.0,0.0,88,0.04,RA,FEW,0.18,WeatherDisplay:10.37,2013-09-30 02:29:00,
2013-09-29 19:34:00,51.4,48.0,29.73,SSE,158,0.0,0.0,88,0.04,RA,FEW,0.18,WeatherDisplay:10.37,2013-09-30 02:34:00,
2013-09-29 19:39:00,51.3,47.8,29.72,SSE,158,0.0,0.0,88,0.04,,FEW,0.18,WeatherDisplay:10.37,2013-09-30 02:39:00,
2013-09-29 19:44:00,51.1,47.6,29.72,SSE,158,0.0,0.0,88,0.04,CLR,FEW,0.18,WeatherDisplay:10.37,2013-09-30 02:44:00,
2013-09-29 19:49:00,51.1,48.0,29.72,SSE,158,0.0,0.0,89,0.04,CLR,FEW,0.18,WeatherDisplay:10.37,2013-09-30 02:49:00,
2013-09-29 19:54:00,50.9,47.8,29.72,SSE,158,0.0,0.0,89,0.04,CLR,FEW,0.18,WeatherDisplay:10.37,2013-09-30 02:54:00,
2013-09-29 19:59:00,50.9,47.8,29.72,SSE,158,0.0,0.0,89,0.06,RA,FEW,0.20,WeatherDisplay:10.37,2013-09-30 02:59:00,
2013-09-29 20:04:00,50.9,47.8,29.72,SSE,158,0.0,0.0,89,0.04,RA,FEW,0.20,WeatherDisplay:10.37,2013-09-30 03:04:00,
2013-09-29 20:09:00,50.7,47.6,29.71,SSE,158,0.0,0.0,89,0.04,CLR,FEW,0.20,WeatherDisplay:10.37,2013-09-30 03:09:00,
2013-09-29 20:14:00,50.7,47.6,29.71,SSE,158,0.0,0.0,89,0.04,CLR,FEW,0.20,WeatherDisplay:10.37,2013-09-30 03:14:00,
2013-09-29 20:19:00,50.7,47.6,29.71,SSE,158,0.0,0.0,89,0.04,CLR,FEW,0.22,WeatherDisplay:10.37,2013-09-30 03:19:00,
2013-09-29 20:24:00,50.7,47.6,29.71,SSE,158,0.0,0.0,89,0.06,RA,FEW,0.22,WeatherDisplay:10.37,2013-09-30 03:24:00,
2013-09-29 20:29:00,50.5,47.4,29.71,SSE,158,0.0,0.0,89,0.04,RA,FEW,0.22,WeatherDisplay:10.37,2013-09-30 03:29:00,
2013-09-29 20:34:00,50.5,47.4,29.71,SSE,158,0.0,0.0,89,0.04,CLR,FEW,0.22,WeatherDisplay:10.37,2013-09-30 03:34:00,
2013-09-29 20:39:00,50.5,47.4,29.72,SSE,158,0.0,0.0,89,0.06,RA,FEW,0.24,WeatherDisplay:10.37,2013-09-30 03:39:00,
2013-09-29 20:44:00,50.4,47.2,29.72,SSE,158,0.0,0.0,89,0.06,RA,FEW,0.24,WeatherDisplay:10.37,2013-09-30 03:44:00,
2013-09-29 20:49:00,50.4,47.5,29.71,SSE,158,0.0,0.0,90,0.06,CLR,FEW,0.24,WeatherDisplay:10.37,2013-09-30 03:49:00,
2013-09-29 20:54:00,50.4,47.5,29.71,SSE,158,0.0,0.0,90,0.08,RA,FEW,0.26,WeatherDisplay:10.37,2013-09-30 03:54:00,
2013-09-29 20:59:00,50.4,47.5,29.71,SSE,158,0.0,0.0,90,0.06,RA,FEW,0.26,WeatherDisplay:10.37,2013-09-30 03:59:00,
2013-09-29 21:01:00,50.4,47.5,29.71,SSE,158,0.0,0.0,90,0.06,RA,FEW,0.26,WeatherDisplay:10.37,2013-09-30 04:01:00,
2013-09-29 21:06:00,50.2,47.4,29.70,SSE,158,0.0,0.0,90,0.08,RA,FEW,0.28,WeatherDisplay:10.37,2013-09-30 04:06:00,
2013-09-29 21:11:00,50.2,47.4,29.70,SSE,158,0.0,0.0,90,0.08,RA,FEW,0.28,WeatherDisplay:10.37,2013-09-30 04:11:00,
2013-09-29 21:16:00,50.2,47.4,29.70,SSE,158,0.0,0.0,90,0.08,CLR,FEW,0.28,WeatherDisplay:10.37,2013-09-30 04:16:00,
2013-09-29 21:21:00,50.2,47.4,29.70,SSE,158,0.0,0.0,90,0.06,CLR,FEW,0.28,WeatherDisplay:10.37,2013-09-30 04:21:00,
2013-09-29 21:26:00,49.8,47.0,29.70,SSE,158,0.0,0.0,90,0.08,RA,FEW,0.30,WeatherDisplay:10.37,2013-09-30 04:26:00,
2013-09-29 21:31:00,49.8,47.0,29.69,SSE,158,0.0,0.0,90,0.10,RA,FEW,0.32,WeatherDisplay:10.37,2013-09-30 04:31:00,
2013-09-29 21:36:00,49.8,47.0,29.69,SSE,158,0.0,0.0,90,0.10,RA,FEW,0.32,WeatherDisplay:10.37,2013-09-30 04:36:00,
2013-09-29 21:41:00,49.8,47.0,29.69,SSE,158,0.0,0.0,90,0.08,CLR,FEW,0.32,WeatherDisplay:10.37,2013-09-30 04:41:00,
2013-09-29 21:46:00,49.8,47.0,29.69,SSE,158,0.0,0.0,90,0.08,CLR,FEW,0.32,WeatherDisplay:10.37,2013-09-30 04:46:00,
2013-09-29 21:51:00,49.8,47.0,29.69,SSE,158,0.0,0.0,90,0.08,CLR,FEW,0.32,WeatherDisplay:10.37,2013-09-30 04:51:00,
2013-09-29 21:56:00,49.8,47.0,29.68,SSE,158,0.0,0.0,90,0.06,CLR,FEW,0.32,WeatherDisplay:10.37,2013-09-30 04:56:00,
2013-09-29 22:01:00,49.8,47.0,29.68,SSE,158,0.0,0.0,90,0.06,CLR,FEW,0.32,WeatherDisplay:10.37,2013-09-30 05:01:00,
2013-09-29 22:06:00,49.8,47.0,29.68,SSE,158,0.0,0.0,90,0.04,CLR,FEW,0.32,WeatherDisplay:10.37,2013-09-30 05:06:00,
2013-09-29 22:11:00,49.6,46.8,29.68,SSE,158,0.0,0.0,90,0.04,CLR,FEW,0.34,WeatherDisplay:10.37,2013-09-30 05:11:00,
2013-09-29 22:16:00,49.6,46.8,29.67,SSE,158,0.0,0.0,90,0.06,RA,FEW,0.34,WeatherDisplay:10.37,2013-09-30 05:16:00,
2013-09-29 22:21:00,49.6,46.8,29.67,SSE,158,0.0,0.0,90,0.06,RA,FEW,0.34,WeatherDisplay:10.37,2013-09-30 05:21:00,
2013-09-29 22:26:00,49.6,46.8,29.66,SSE,158,0.0,0.0,90,0.04,CLR,FEW,0.34,WeatherDisplay:10.37,2013-09-30 05:26:00,
2013-09-29 22:31:00,49.6,46.8,29.66,SSE,158,0.0,0.0,90,0.02,CLR,FEW,0.34,WeatherDisplay:10.37,2013-09-30 05:31:00,
2013-09-29 22:36:00,49.6,46.8,29.66,SSE,158,0.0,0.0,90,0.02,CLR,FEW,0.34,WeatherDisplay:10.37,2013-09-30 05:36:00,
2013-09-29 22:41:00,49.6,46.8,29.65,SSE,158,0.0,0.0,90,0.02,CLR,FEW,0.34,WeatherDisplay:10.37,2013-09-30 05:41:00,
2013-09-29 22:46:00,49.6,46.8,29.64,SSE,158,0.0,0.0,90,0.02,CLR,FEW,0.34,WeatherDisplay:10.37,2013-09-30 05:46:00,
2013-09-29 22:51:00,49.6,47.1,29.64,SSE,158,0.0,0.0,91,0.02,CLR,FEW,0.34,WeatherDisplay:10.37,2013-09-30 05:51:00,
2013-09-29 22:56:00,49.6,47.1,29.64,SSE,158,0.0,0.0,91,0.02,CLR,FEW,0.34,WeatherDisplay:10.37,2013-09-30 05:56:00,
2013-09-29 23:01:00,49.6,47.1,29.64,SSE,158,0.0,0.0,91,0.02,CLR,FEW,0.34,WeatherDisplay:10.37,2013-09-30 06:01:00,
2013-09-29 23:06:00,49.6,47.1,29.64,SSE,158,0.0,0.0,91,0.02,CLR,FEW,0.34,WeatherDisplay:10.37,2013-09-30 06:06:00,
2013-09-29 23:11:00,49.6,47.1,29.63,SSE,158,0.0,0.0,91,0.02,CLR,FEW,0.34,WeatherDisplay:10.37,2013-09-30 06:11:00,
2013-09-29 23:16:00,49.3,46.8,29.63,SSE,158,0.0,0.0,91,0.00,CLR,FEW,0.34,WeatherDisplay:10.37,2013-09-30 06:16:00,
2013-09-29 23:21:00,49.3,46.8,29.62,SSE,158,0.0,0.0,91,0.00,CLR,FEW,0.34,WeatherDisplay:10.37,2013-09-30 06:21:00,
2013-09-29 23:26:00,49.3,46.8,29.62,SSE,158,0.0,0.0,91,0.00,CLR,FEW,0.34,WeatherDisplay:10.37,2013-09-30 06:26:00,
2013-09-29 23:31:00,49.3,46.8,29.62,SSE,158,0.0,0.0,91,0.00,CLR,FEW,0.34,WeatherDisplay:10.37,2013-09-30 06:31:00,
2013-09-29 23:36:00,49.3,46.8,29.61,SSE,158,0.0,0.0,91,0.00,CLR,FEW,0.34,WeatherDisplay:10.37,2013-09-30 06:36:00,
2013-09-29 23:41:00,49.3,46.8,29.61,SSE,158,0.0,0.0,91,0.00,CLR,FEW,0.34,WeatherDisplay:10.37,2013-09-30 06:41:00,
2013-09-29 23:46:00,49.3,46.8,29.61,SSE,158,0.0,0.0,91,0.00,CLR,FEW,0.34,WeatherDisplay:10.37,2013-09-30 06:46:00,
2013-09-29 23:51:00,49.3,46.8,29.61,SSE,158,0.0,0.0,91,0.00,CLR,FEW,0.34,WeatherDisplay:10.37,2013-09-30 06:51:00,
2013-09-29 23:56:00,49.1,46.6,29.61,SSE,158,0.0,0.0,91,0.00,CLR,FEW,0.34,WeatherDisplay:10.37,2013-09-30 06:56:00,